| time (UTC) | temp C | wind direction | speed KPH | gust KPH | rain 1hr cm | rain 24hr cm | rain mn cm | humidity % | barometer mb |
| 20260505140502 | 1 | 56 | 0.0 | 4.8 | 0.03 | 0.38 | 0.15 | 91 | 1006.5 |
| 20260505130108 | 2 | 14 | 0.0 | 4.8 | 0.08 | 0.36 | 0.13 | 89 | 1005.1 |
| 20260505124553 | 2 | 29 | 0.0 | 4.8 | 0.05 | 0.33 | 0.10 | 89 | 1004.5 |
| 20260505124044 | 3 | 346 | 0.0 | 6.4 | 0.08 | 0.33 | 0.10 | 89 | 1004.3 |
| 20260505123543 | 3 | 55 | 0.0 | 11.3 | 0.08 | 0.33 | 0.10 | 89 | 1004.0 |
| 20260505123045 | 3 | 56 | 0.0 | 11.3 | 0.05 | 0.30 | 0.08 | 89 | 1003.8 |
| 20260505122540 | 3 | 356 | 0.0 | 4.8 | 0.05 | 0.30 | 0.08 | 89 | 1003.8 |
| 20260505122039 | 4 | 54 | 0.0 | 4.8 | 0.05 | 0.30 | 0.08 | 89 | 1003.9 |
| 20260505121538 | 4 | 44 | 0.0 | 3.2 | 0.08 | 0.30 | 0.08 | 89 | 1003.9 |
| 20260505121036 | 5 | 56 | 0.0 | 4.8 | 0.08 | 0.30 | 0.08 | 89 | 1003.7 |
| 20260505120535 | 5 | 41 | 0.0 | 4.8 | 0.05 | 0.28 | 0.05 | 90 | 1003.7 |
| 20260505120033 | 5 | 171 | 0.0 | 0.0 | 0.05 | 0.28 | 0.05 | 90 | 1003.7 |
| 20260505115534 | 5 | 171 | 0.0 | 0.0 | 0.05 | 0.28 | 0.05 | 90 | 1003.7 |
| 20260505115036 | 5 | 170 | 0.0 | 0.0 | 0.05 | 0.28 | 0.05 | 90 | 1003.7 |
| 20260505114534 | 5 | 169 | 0.0 | 0.0 | 0.03 | 0.25 | 0.03 | 90 | 1003.6 |
| 20260505114034 | 5 | 168 | 0.0 | 0.0 | 0.03 | 0.25 | 0.03 | 90 | 1003.5 |
| 20260505113535 | 5 | 168 | 0.0 | 0.0 | 0.03 | 0.25 | 0.03 | 90 | 1003.5 |
| 20260505113033 | 5 | 168 | 0.0 | 0.0 | 0.03 | 0.25 | 0.03 | 90 | 1003.5 |
| 20260505112634 | 5 | 168 | 0.0 | 0.0 | 0.03 | 0.25 | 0.03 | 90 | 1003.4 |
| 20260505112033 | 5 | 168 | 0.0 | 0.0 | 0.03 | 0.25 | 0.03 | 90 | 1003.5 |
| 20260505111538 | 5 | 168 | 0.0 | 0.0 | 0.00 | 0.23 | 0.00 | 89 | 1003.4 |
| 20260505111033 | 5 | 168 | 0.0 | 0.0 | 0.00 | 0.23 | 0.00 | 89 | 1003.4 |
| 20260505110532 | 5 | 168 | 0.0 | 0.0 | 0.00 | 0.23 | 0.00 | 89 | 1003.4 |
| 20260505102031 | 5 | 179 | 0.0 | 8.0 | 0.00 | 0.23 | 0.00 | 88 | 1002.7 |
| 20260505101527 | 6 | 179 | 0.0 | 8.0 | 0.00 | 0.23 | 0.00 | 88 | 1002.6 |
| 20260505101025 | 6 | 193 | 0.0 | 6.4 | 0.00 | 0.23 | 0.00 | 88 | 1002.3 |
| 20260505100526 | 6 | 251 | 0.0 | 1.6 | 0.00 | 0.23 | 0.00 | 88 | 1002.5 |
| 20260505100028 | 6 | 259 | 0.0 | 1.6 | 0.00 | 0.23 | 0.00 | 88 | 1002.5 |
| 20260505095521 | 6 | 259 | 0.0 | 0.0 | 0.00 | 0.23 | 0.00 | 89 | 1002.5 |
| 20260505095021 | 6 | 259 | 0.0 | 0.0 | 0.00 | 0.23 | 0.00 | 89 | 1002.4 |
| 20260505094521 | 6 | 256 | 0.0 | 0.0 | 0.00 | 0.23 | 0.00 | 89 | 1002.5 |
| 20260505094021 | 6 | 256 | 0.0 | 0.0 | 0.00 | 0.23 | 0.00 | 89 | 1002.5 |
| 20260505093520 | 6 | 256 | 0.0 | 0.0 | 0.00 | 0.23 | 0.00 | 88 | 1002.5 |
| 20260505093020 | 6 | 256 | 0.0 | 0.0 | 0.00 | 0.23 | 0.00 | 88 | 1002.6 |
| 20260505092522 | 6 | 256 | 0.0 | 0.0 | 0.00 | 0.23 | 0.00 | 88 | 1002.8 |
| 20260505092019 | 6 | 256 | 0.0 | 0.0 | 0.00 | 0.23 | 0.00 | 88 | 1002.8 |
| 20260505091518 | 6 | 256 | 0.0 | 0.0 | 0.00 | 0.23 | 0.00 | 88 | 1002.7 |
| 20260505091021 | 6 | 256 | 0.0 | 0.0 | 0.00 | 0.23 | 0.00 | 88 | 1002.7 |
| 20260505090519 | 7 | 256 | 0.0 | 0.0 | 0.00 | 0.23 | 0.00 | 88 | 1002.7 |
| 20260505090017 | 7 | 256 | 0.0 | 0.0 | 0.00 | 0.23 | 0.00 | 88 | 1002.5 |
| 20260505085516 | 7 | 256 | 0.0 | 0.0 | 0.00 | 0.23 | 0.00 | 88 | 1002.5 |
| 20260505085017 | 7 | 256 | 0.0 | 0.0 | 0.00 | 0.23 | 0.00 | 88 | 1002.5 |
| 20260505084519 | 7 | 256 | 0.0 | 0.0 | 0.00 | 0.23 | 0.00 | 88 | 1002.7 |
| 20260505084016 | 7 | 256 | 0.0 | 0.0 | 0.00 | 0.23 | 0.00 | 88 | 1002.7 |
| 20260505083515 | 7 | 256 | 0.0 | 0.0 | 0.00 | 0.23 | 0.00 | 87 | 1002.6 |
| 20260505083016 | 7 | 256 | 0.0 | 0.0 | 0.00 | 0.23 | 0.00 | 87 | 1002.7 |
| 20260505082513 | 7 | 256 | 0.0 | 0.0 | 0.00 | 0.23 | 0.00 | 87 | 1002.8 |
| 20260505082015 | 7 | 256 | 0.0 | 0.0 | 0.00 | 0.23 | 0.00 | 87 | 1002.9 |
| 20260505081512 | 7 | 256 | 0.0 | 0.0 | 0.00 | 0.23 | 0.00 | 87 | 1002.9 |
| 20260505081012 | 7 | 256 | 0.0 | 1.6 | 0.00 | 0.23 | 0.00 | 87 | 1002.9 |
| 20260505080514 | 7 | 257 | 0.0 | 0.0 | 0.00 | 0.23 | 0.00 | 88 | 1003.1 |
| 20260505080012 | 7 | 258 | 0.0 | 0.0 | 0.00 | 0.23 | 0.00 | 88 | 1003.0 |
| 20260505075509 | 7 | 257 | 0.0 | 0.0 | 0.00 | 0.23 | 0.00 | 89 | 1003.2 |
| 20260505075012 | 7 | 258 | 0.0 | 0.0 | 0.00 | 0.23 | 0.00 | 89 | 1003.3 |
| 20260505074509 | 7 | 257 | 0.0 | 0.0 | 0.00 | 0.23 | 0.00 | 89 | 1003.3 |
| 20260505074008 | 7 | 258 | 0.0 | 0.0 | 0.00 | 0.23 | 0.00 | 88 | 1003.3 |
| 20260505073509 | 7 | 258 | 0.0 | 0.0 | 0.00 | 0.23 | 0.00 | 88 | 1003.5 |
| 20260505073010 | 7 | 257 | 0.0 | 0.0 | 0.00 | 0.23 | 0.00 | 88 | 1003.4 |
| 20260505072508 | 7 | 258 | 0.0 | 0.0 | 0.00 | 0.23 | 0.00 | 88 | 1003.4 |
| 20260505072006 | 7 | 258 | 0.0 | 0.0 | 0.00 | 0.23 | 0.00 | 88 | 1003.3 |
| 20260505071515 | 7 | 257 | 0.0 | 0.0 | 0.00 | 0.23 | 0.00 | 88 | 1003.3 |
| 20260505071006 | 7 | 258 | 0.0 | 0.0 | 0.00 | 0.23 | 0.00 | 88 | 1003.5 |
| 20260505070505 | 7 | 258 | 0.0 | 0.0 | 0.00 | 0.23 | 0.00 | 88 | 1003.7 |
| 20260505070004 | 7 | 258 | 0.0 | 0.0 | 0.00 | 0.23 | 0.00 | 88 | 1003.6 |
| 20260505065503 | 7 | 258 | 0.0 | 0.0 | 0.00 | 0.23 | 0.00 | 88 | 1003.6 |
| 20260505065003 | 7 | 257 | 0.0 | 0.0 | 0.00 | 0.23 | 0.00 | 88 | 1003.7 |
| 20260505064503 | 7 | 258 | 0.0 | 0.0 | 0.00 | 0.23 | 0.00 | 87 | 1003.7 |
| 20260505064002 | 7 | 257 | 0.0 | 0.0 | 0.00 | 0.23 | 0.00 | 87 | 1003.7 |
| 20260505063502 | 7 | 257 | 0.0 | 0.0 | 0.00 | 0.23 | 0.00 | 87 | 1003.7 |
| 20260505063004 | 7 | 258 | 0.0 | 0.0 | 0.03 | 0.23 | 0.00 | 87 | 1003.7 |
| 20260505062502 | 7 | 258 | 0.0 | 0.0 | 0.03 | 0.23 | 0.00 | 87 | 1003.6 |
| 20260505062001 | 7 | 258 | 0.0 | 0.0 | 0.03 | 0.23 | 0.00 | 87 | 1003.5 |
| 20260505061603 | 7 | 258 | 0.0 | 0.0 | 0.05 | 0.23 | 0.00 | 87 | 1003.6 |
| 20260505061059 | 7 | 257 | 0.0 | 0.0 | 0.05 | 0.23 | 0.00 | 87 | 1003.6 |
| 20260505060559 | 7 | 257 | 0.0 | 0.0 | 0.05 | 0.23 | 0.00 | 87 | 1003.6 |
| 20260505060058 | 7 | 257 | 0.0 | 0.0 | 0.05 | 0.23 | 0.00 | 87 | 1003.8 |
| 20260505055557 | 7 | 258 | 0.0 | 0.0 | 0.08 | 0.23 | 0.23 | 87 | 1003.7 |
| 20260505055059 | 7 | 258 | 0.0 | 0.0 | 0.08 | 0.23 | 0.23 | 86 | 1003.6 |
| 20260505054559 | 7 | 258 | 0.0 | 0.0 | 0.08 | 0.23 | 0.23 | 86 | 1003.6 |
| 20260505054059 | 7 | 257 | 0.0 | 0.0 | 0.08 | 0.23 | 0.23 | 86 | 1003.5 |
| 20260505053556 | 7 | 258 | 0.0 | 0.0 | 0.10 | 0.23 | 0.23 | 85 | 1003.6 |
| 20260505053104 | 8 | 257 | 0.0 | 0.0 | 0.10 | 0.20 | 0.20 | 85 | 1003.7 |
| 20260505052556 | 8 | 257 | 0.0 | 0.0 | 0.13 | 0.20 | 0.20 | 84 | 1003.7 |
| 20260505052058 | 8 | 258 | 0.0 | 0.0 | 0.13 | 0.20 | 0.20 | 84 | 1003.8 |
| 20260505051555 | 8 | 257 | 0.0 | 0.0 | 0.13 | 0.18 | 0.18 | 84 | 1003.9 |
| 20260505051055 | 8 | 257 | 0.0 | 0.0 | 0.13 | 0.18 | 0.18 | 83 | 1004.0 |
| 20260505050555 | 8 | 257 | 0.0 | 0.0 | 0.15 | 0.18 | 0.18 | 84 | 1003.9 |
| 20260505041553 | 10 | 247 | 0.0 | 0.0 | 0.05 | 0.05 | 0.05 | 76 | 1003.7 |
| 20260505041048 | 10 | 246 | 0.0 | 0.0 | 0.05 | 0.05 | 0.05 | 74 | 1003.8 |
| 20260505040547 | 10 | 246 | 0.0 | 0.0 | 0.03 | 0.03 | 0.03 | 73 | 1003.6 |
| 20260505040050 | 10 | 246 | 0.0 | 0.0 | 0.03 | 0.03 | 0.03 | 72 | 1003.5 |
| 20260505035546 | 10 | 246 | 0.0 | 3.2 | 0.03 | 0.03 | 0.03 | 70 | 1003.5 |
| 20260505035045 | 11 | 246 | 0.0 | 3.2 | 0.00 | 0.00 | 0.00 | 67 | 1003.6 |
| 20260505034543 | 11 | 129 | 0.0 | 0.0 | 0.00 | 0.00 | 0.00 | 63 | 1003.4 |
| 20260505034044 | 11 | 129 | 0.0 | 0.0 | 0.00 | 0.00 | 0.00 | 61 | 1003.2 |
| 20260505033543 | 11 | 129 | 0.0 | 0.0 | 0.00 | 0.00 | 0.00 | 60 | 1003.2 |
| 20260505033047 | 11 | 129 | 0.0 | 0.0 | 0.00 | 0.00 | 0.00 | 58 | 1003.0 |
| 20260505032542 | 11 | 129 | 0.0 | 0.0 | 0.00 | 0.00 | 0.00 | 58 | 1002.8 |
| 20260505032044 | 10 | 129 | 0.0 | 0.0 | 0.00 | 0.00 | 0.00 | 58 | 1002.7 |
| 20260505031543 | 11 | 129 | 0.0 | 0.0 | 0.00 | 0.00 | 0.00 | 58 | 1002.6 |
| 20260505031042 | 10 | 129 | 0.0 | 0.0 | 0.00 | 0.00 | 0.00 | 58 | 1002.7 |
| 20260505030542 | 11 | 129 | 0.0 | 0.0 | 0.00 | 0.00 | 0.00 | 58 | 1002.4 |
| 20260505030042 | 11 | 129 | 0.0 | 0.0 | 0.00 | 0.00 | 0.00 | 58 | 1002.3 |
| 20260505025544 | 11 | 129 | 0.0 | 0.0 | 0.00 | 0.00 | 0.00 | 58 | 1002.3 |
| 20260505025041 | 11 | 129 | 0.0 | 0.0 | 0.00 | 0.00 | 0.00 | 57 | 1002.3 |
| 20260505024544 | 11 | 129 | 0.0 | 0.0 | 0.00 | 0.00 | 0.00 | 58 | 1002.2 |
| 20260505024041 | 11 | 129 | 0.0 | 0.0 | 0.00 | 0.00 | 0.00 | 57 | 1002.3 |
| 20260505023541 | 11 | 129 | 0.0 | 0.0 | 0.00 | 0.00 | 0.00 | 57 | 1002.1 |
| 20260505023042 | 11 | 129 | 0.0 | 0.0 | 0.00 | 0.00 | 0.00 | 57 | 1002.0 |
| 20260505022541 | 11 | 129 | 0.0 | 0.0 | 0.00 | 0.00 | 0.00 | 57 | 1002.0 |
| 20260505022043 | 11 | 129 | 0.0 | 0.0 | 0.00 | 0.00 | 0.00 | 56 | 1002.2 |
| 20260505021542 | 11 | 129 | 0.0 | 0.0 | 0.00 | 0.00 | 0.00 | 56 | 1002.0 |
| 20260505021040 | 11 | 129 | 0.0 | 1.6 | 0.00 | 0.00 | 0.00 | 55 | 1002.0 |
| 20260505020542 | 11 | 129 | 0.0 | 3.2 | 0.00 | 0.00 | 0.00 | 54 | 1002.2 |
| 20260505020040 | 12 | 129 | 0.0 | 3.2 | 0.00 | 0.00 | 0.00 | 53 | 1002.2 |
| 20260505015540 | 12 | 347 | 0.0 | 3.2 | 0.00 | 0.00 | 0.00 | 51 | 1002.0 |
| 20260505015040 | 12 | 342 | 0.0 | 3.2 | 0.00 | 0.00 | 0.00 | 49 | 1001.9 |
| 20260505014540 | 13 | 279 | 0.0 | 4.8 | 0.00 | 0.00 | 0.00 | 48 | 1001.5 |
| 20260505014041 | 13 | 279 | 0.0 | 9.7 | 0.00 | 0.00 | 0.00 | 47 | 1001.3 |
| 20260505013539 | 13 | 271 | 0.0 | 12.9 | 0.00 | 0.00 | 0.00 | 46 | 1001.4 |
| 20260505013039 | 13 | 272 | 1.6 | 12.9 | 0.00 | 0.00 | 0.00 | 45 | 1001.6 |
| 20260505012538 | 13 | 270 | 0.0 | 6.4 | 0.00 | 0.00 | 0.00 | 44 | 1001.5 |
| 20260505012041 | 13 | 277 | 0.0 | 24.1 | 0.00 | 0.00 | 0.00 | 44 | 1001.5 |
| 20260505011548 | 14 | 266 | 1.6 | 24.1 | 0.00 | 0.00 | 0.00 | 43 | 1001.6 |
| 20260505011041 | 14 | 272 | 3.2 | 16.1 | 0.00 | 0.00 | 0.00 | 43 | 1001.4 |
| 20260505010538 | 14 | 270 | 0.0 | 8.0 | 0.00 | 0.00 | 0.00 | 41 | 1001.2 |
| 20260505010039 | 15 | 269 | 0.0 | 6.4 | 0.00 | 0.00 | 0.00 | 41 | 1001.2 |
| 20260505005537 | 15 | 270 | 0.0 | 14.5 | 0.00 | 0.00 | 0.00 | 40 | 1001.1 |
| 20260505005037 | 15 | 269 | 0.0 | 14.5 | 0.00 | 0.00 | 0.00 | 39 | 1001.1 |
| 20260505004537 | 15 | 285 | 0.0 | 12.9 | 0.00 | 0.00 | 0.00 | 38 | 1001.0 |
| 20260505004036 | 15 | 272 | 0.0 | 11.3 | 0.00 | 0.00 | 0.00 | 38 | 1000.9 |
| 20260505003540 | 15 | 271 | 0.0 | 8.0 | 0.00 | 0.00 | 0.00 | 37 | 1000.8 |
| 20260505003036 | 15 | 271 | 0.0 | 8.0 | 0.00 | 0.00 | 0.00 | 37 | 1000.8 |
| 20260505002536 | 15 | 270 | 0.0 | 14.5 | 0.00 | 0.00 | 0.00 | 36 | 1000.7 |
| 20260505002036 | 16 | 263 | 0.0 | 22.5 | 0.00 | 0.00 | 0.00 | 36 | 1000.6 |
| 20260505001536 | 16 | 283 | 0.0 | 11.3 | 0.00 | 0.00 | 0.00 | 33 | 1000.5 |
| 20260505001035 | 16 | 287 | 0.0 | 8.0 | 0.00 | 0.00 | 0.00 | 33 | 1000.4 |
| 20260505000538 | 16 | 295 | 0.0 | 1.6 | 0.00 | 0.00 | 0.00 | 33 | 1000.3 |
| 20260505000035 | 16 | 195 | 0.0 | 1.6 | 0.00 | 0.00 | 0.00 | 32 | 1000.4 |
| 20260504235534 | 16 | 153 | 0.0 | 1.6 | 0.00 | 0.00 | 0.00 | 32 | 1000.3 |
| 20260504235036 | 16 | 251 | 0.0 | 3.2 | 0.00 | 0.00 | 0.00 | 32 | 1000.3 |
| 20260504234534 | 16 | 266 | 0.0 | 3.2 | 0.00 | 0.00 | 0.00 | 32 | 1000.2 |
| 20260504234033 | 16 | 280 | 0.0 | 4.8 | 0.00 | 0.00 | 0.00 | 32 | 1000.2 |
| 20260504233537 | 16 | 279 | 0.0 | 4.8 | 0.00 | 0.00 | 0.00 | 32 | 1000.1 |
| 20260504233036 | 16 | 355 | 0.0 | 4.8 | 0.00 | 0.00 | 0.00 | 32 | 1000.0 |
| 20260504232533 | 16 | 264 | 0.0 | 4.8 | 0.00 | 0.00 | 0.00 | 32 | 999.9 |
| 20260504232034 | 16 | 270 | 0.0 | 8.0 | 0.00 | 0.00 | 0.00 | 32 | 1000.0 |
| 20260504231533 | 16 | 281 | 0.0 | 8.0 | 0.00 | 0.00 | 0.00 | 32 | 999.7 |
| 20260504231033 | 16 | 52 | 0.0 | 6.4 | 0.00 | 0.00 | 0.00 | 32 | 999.6 |
| 20260504230534 | 17 | 31 | 1.6 | 6.4 | 0.00 | 0.00 | 0.00 | 32 | 999.4 |
| 20260504230032 | 17 | 129 | 0.0 | 6.4 | 0.00 | 0.00 | 0.00 | 31 | 999.3 |
| 20260504225531 | 17 | 277 | 0.0 | 20.9 | 0.00 | 0.00 | 0.00 | 31 | 999.1 |
| 20260504225034 | 17 | 129 | 0.0 | 20.9 | 0.00 | 0.00 | 0.00 | 30 | 999.1 |
| 20260504224532 | 18 | 280 | 1.6 | 24.1 | 0.00 | 0.00 | 0.00 | 28 | 999.1 |
| 20260504224036 | 18 | 272 | 3.2 | 22.5 | 0.00 | 0.00 | 0.00 | 27 | 999.0 |
| 20260504223531 | 18 | 287 | 1.6 | 20.9 | 0.00 | 0.00 | 0.00 | 27 | 998.9 |
| 20260504223032 | 19 | 268 | 3.2 | 20.9 | 0.00 | 0.00 | 0.00 | 26 | 998.8 |
| 20260504222532 | 20 | 277 | 0.0 | 12.9 | 0.00 | 0.00 | 0.00 | 24 | 999.0 |
| 20260504222031 | 20 | 291 | 1.6 | 12.9 | 0.00 | 0.00 | 0.00 | 22 | 998.9 |
| 20260504221531 | 20 | 229 | 0.0 | 6.4 | 0.00 | 0.00 | 0.00 | 22 | 998.7 |
| 20260504221031 | 21 | 250 | 0.0 | 6.4 | 0.00 | 0.00 | 0.00 | 21 | 998.7 |
| 20260504220531 | 21 | 148 | 0.0 | 17.7 | 0.00 | 0.00 | 0.00 | 22 | 998.6 |
| 20260504220030 | 21 | 277 | 0.0 | 17.7 | 0.00 | 0.00 | 0.00 | 21 | 998.5 |
| 20260504215531 | 21 | 267 | 0.0 | 11.3 | 0.00 | 0.00 | 0.00 | 20 | 998.4 |
| 20260504215032 | 21 | 266 | 1.6 | 11.3 | 0.00 | 0.00 | 0.00 | 20 | 998.5 |
| 20260504214530 | 22 | 261 | 1.6 | 16.1 | 0.00 | 0.00 | 0.00 | 20 | 998.5 |
| 20260504214029 | 22 | 258 | 3.2 | 24.1 | 0.00 | 0.00 | 0.00 | 20 | 998.5 |
| 20260504213528 | 22 | 272 | 3.2 | 24.1 | 0.00 | 0.00 | 0.00 | 20 | 998.6 |
| 20260504213027 | 23 | 260 | 6.4 | 20.9 | 0.00 | 0.00 | 0.00 | 21 | 998.7 |
| 20260504212528 | 23 | 268 | 3.2 | 14.5 | 0.00 | 0.00 | 0.00 | 19 | 998.7 |
| 20260504212027 | 23 | 279 | 1.6 | 17.7 | 0.00 | 0.00 | 0.00 | 19 | 998.7 |
| 20260504211527 | 23 | 277 | 1.6 | 17.7 | 0.00 | 0.00 | 0.00 | 20 | 998.8 |
| 20260504211026 | 23 | 262 | 0.0 | 27.4 | 0.00 | 0.00 | 0.00 | 20 | 998.9 |
| 20260504210525 | 23 | 274 | 3.2 | 25.7 | 0.00 | 0.00 | 0.00 | 19 | 999.0 |
| 20260504210025 | 23 | 270 | 3.2 | 19.3 | 0.00 | 0.00 | 0.00 | 20 | 998.8 |
| 20260504205524 | 23 | 266 | 1.6 | 16.1 | 0.00 | 0.00 | 0.00 | 20 | 999.0 |
| 20260504205022 | 23 | 272 | 0.0 | 24.1 | 0.00 | 0.00 | 0.00 | 20 | 999.1 |
| 20260504204523 | 23 | 270 | 0.0 | 33.8 | 0.00 | 0.00 | 0.00 | 20 | 999.0 |
| 20260504204022 | 23 | 256 | 1.6 | 33.8 | 0.00 | 0.00 | 0.00 | 21 | 998.9 |
| 20260504203521 | 22 | 271 | 1.6 | 22.5 | 0.00 | 0.00 | 0.00 | 21 | 999.1 |
| 20260504203021 | 22 | 268 | 0.0 | 14.5 | 0.00 | 0.00 | 0.00 | 23 | 999.3 |
| 20260504202521 | 21 | 266 | 1.6 | 14.5 | 0.00 | 0.00 | 0.00 | 21 | 999.3 |
| 20260504202021 | 21 | 223 | 0.0 | 4.8 | 0.00 | 0.00 | 0.00 | 23 | 999.3 |
| 20260504201522 | 20 | 150 | 0.0 | 8.0 | 0.00 | 0.00 | 0.00 | 23 | 999.3 |
| 20260504201019 | 20 | 148 | 1.6 | 8.0 | 0.00 | 0.00 | 0.00 | 23 | 999.4 |
| 20260504200519 | 20 | 148 | 0.0 | 12.9 | 0.00 | 0.00 | 0.00 | 21 | 999.4 |
| 20260504200033 | 20 | 148 | 3.2 | 22.5 | 0.00 | 0.00 | 0.00 | 22 | 999.5 |
| 20260504195518 | 20 | 147 | 6.4 | 20.9 | 0.00 | 0.00 | 0.00 | 23 | 999.6 |
| 20260504195018 | 21 | 129 | 6.4 | 20.9 | 0.00 | 0.00 | 0.00 | 22 | 999.7 |
| 20260504194520 | 21 | 280 | 0.0 | 16.1 | 0.00 | 0.00 | 0.00 | 22 | 999.5 |
| 20260504194018 | 21 | 148 | 4.8 | 16.1 | 0.00 | 0.00 | 0.00 | 21 | 999.5 |
| 20260504193519 | 21 | 269 | 0.0 | 6.4 | 0.00 | 0.00 | 0.00 | 21 | 999.4 |
| 20260504193018 | 21 | 272 | 0.0 | 14.5 | 0.00 | 0.00 | 0.00 | 23 | 999.5 |
| 20260504192517 | 20 | 290 | 0.0 | 14.5 | 0.00 | 0.00 | 0.00 | 24 | 999.5 |
| 20260504192017 | 20 | 279 | 0.0 | 25.7 | 0.00 | 0.00 | 0.00 | 21 | 999.5 |
| 20260504191528 | 20 | 269 | 0.0 | 12.9 | 0.00 | 0.00 | 0.00 | 22 | 999.4 |
| 20260504191017 | 20 | 268 | 0.0 | 14.5 | 0.00 | 0.00 | 0.00 | 22 | 999.5 |
| 20260504190517 | 20 | 277 | 1.6 | 14.5 | 0.00 | 0.00 | 0.00 | 20 | 999.6 |
| 20260504190016 | 21 | 271 | 0.0 | 17.7 | 0.00 | 0.00 | 0.00 | 21 | 999.5 |
| 20260504185515 | 21 | 269 | 1.6 | 25.7 | 0.00 | 0.00 | 0.00 | 20 | 999.5 |
| 20260504185015 | 21 | 253 | 6.4 | 25.7 | 0.00 | 0.00 | 0.00 | 19 | 999.4 |
| 20260504184515 | 21 | 264 | 0.0 | 25.7 | 0.00 | 0.00 | 0.00 | 19 | 999.4 |
| 20260504184015 | 22 | 268 | 0.0 | 16.1 | 0.00 | 0.00 | 0.00 | 20 | 999.4 |
| 20260504183514 | 22 | 274 | 1.6 | 16.1 | 0.00 | 0.00 | 0.00 | 20 | 999.5 |
| 20260504183032 | 22 | 274 | 0.0 | 12.9 | 0.00 | 0.00 | 0.00 | 18 | 999.5 |
| 20260504182514 | 22 | 274 | 0.0 | 12.9 | 0.00 | 0.00 | 0.00 | 18 | 999.6 |
| 20260504182013 | 23 | 273 | 0.0 | 8.0 | 0.00 | 0.00 | 0.00 | 18 | 999.5 |
| 20260504181522 | 23 | 269 | 0.0 | 11.3 | 0.00 | 0.00 | 0.00 | 17 | 999.6 |
| 20260504181012 | 23 | 269 | 0.0 | 16.1 | 0.00 | 0.00 | 0.00 | 18 | 999.7 |
| 20260504180516 | 23 | 266 | 1.6 | 16.1 | 0.00 | 0.00 | 0.00 | 18 | 999.6 |
| 20260504180010 | 23 | 244 | 0.0 | 4.8 | 0.00 | 0.00 | 0.00 | 17 | 999.7 |
| 20260504175510 | 24 | 244 | 0.0 | 24.1 | 0.00 | 0.00 | 0.00 | 17 | 999.8 |
| 20260504175009 | 24 | 252 | 4.8 | 24.1 | 0.00 | 0.00 | 0.00 | 18 | 999.9 |
| 20260504174512 | 24 | 258 | 1.6 | 16.1 | 0.00 | 0.00 | 0.00 | 18 | 1000.0 |
| 20260504174007 | 24 | 266 | 0.0 | 8.0 | 0.00 | 0.00 | 0.00 | 16 | 1000.1 |
| 20260504173508 | 23 | 266 | 0.0 | 8.0 | 0.00 | 0.00 | 0.00 | 17 | 1000.3 |
| 20260504173005 | 23 | 264 | 1.6 | 22.5 | 0.00 | 0.00 | 0.00 | 19 | 1000.4 |
| 20260504172605 | 23 | 272 | 1.6 | 24.1 | 0.00 | 0.00 | 0.00 | 18 | 1000.3 |
| 20260504172004 | 23 | 272 | 6.4 | 24.1 | 0.00 | 0.00 | 0.00 | 20 | 1000.4 |
| 20260504171502 | 23 | 259 | 0.0 | 16.1 | 0.00 | 0.00 | 0.00 | 19 | 1000.4 |
| 20260504171005 | 23 | 252 | 0.0 | 22.5 | 0.00 | 0.00 | 0.00 | 18 | 1000.6 |
| 20260504170501 | 23 | 254 | 4.8 | 22.5 | 0.00 | 0.00 | 0.00 | 20 | 1000.7 |
| 20260504170110 | 23 | 259 | 1.6 | 16.1 | 0.00 | 0.00 | 0.00 | 21 | 1000.7 |
| 20260504151035 | 18 | 250 | 12.9 | 27.4 | 0.00 | 0.00 | 0.00 | 25 | 1001.7 |
| 20260504150533 | 18 | 258 | 4.8 | 20.9 | 0.00 | 0.00 | 0.00 | 25 | 1001.8 |